Time,TemperatureF,DewpointF,PressureIn,WindDirection,WindDirectionDegrees,WindSpeedMPH,WindSpeedGustMPH,Humidity,HourlyPrecipIn,Conditions,Clouds,dailyrainin,SoftwareType,DateUTC
2013-03-02 00:14:00,30.4,28.0,29.97,South,169,0.0,-999.0,92,-99.99,,,0.00,weatherlink.com 1.10,2013-03-02 05:14:00,
2013-03-02 00:29:00,30.4,28.0,29.97,SSW,202,0.0,-999.0,92,-99.99,,,0.00,weatherlink.com 1.10,2013-03-02 05:29:00,
2013-03-02 00:44:00,30.3,28.0,29.97,ESE,103,1.0,-999.0,92,-99.99,,,0.00,weatherlink.com 1.10,2013-03-02 05:44:00,
2013-03-02 00:59:00,30.5,29.0,29.97,ENE,77,1.0,-999.0,92,-99.99,,,0.00,weatherlink.com 1.10,2013-03-02 05:59:00,
2013-03-02 01:14:00,30.4,28.0,29.97,ENE,77,0.0,-999.0,92,-99.99,,,0.00,weatherlink.com 1.10,2013-03-02 06:14:00,
2013-03-02 01:29:00,30.4,28.0,29.97,South,189,3.0,-999.0,92,-99.99,,,0.00,weatherlink.com 1.10,2013-03-02 06:29:00,
2013-03-02 01:44:00,30.4,28.0,29.97,NW,316,0.0,-999.0,91,-99.99,,,0.00,weatherlink.com 1.10,2013-03-02 06:44:00,
2013-03-02 01:59:00,30.5,28.0,29.97,ENE,62,4.0,-999.0,91,-99.99,,,0.00,weatherlink.com 1.10,2013-03-02 06:59:00,
2013-03-02 02:14:00,30.5,28.0,29.97,SSE,160,1.0,-999.0,91,-99.99,,,0.00,weatherlink.com 1.10,2013-03-02 07:14:00,
2013-03-02 02:29:00,30.5,28.0,29.97,ENE,62,1.0,-999.0,91,-99.99,,,0.00,weatherlink.com 1.10,2013-03-02 07:29:00,
2013-03-02 02:44:00,30.5,28.0,29.96,NE,46,0.0,-999.0,91,-99.99,,,0.00,weatherlink.com 1.10,2013-03-02 07:44:00,
2013-03-02 02:59:00,30.5,28.0,29.95,NE,48,0.0,-999.0,91,-99.99,,,0.00,weatherlink.com 1.10,2013-03-02 07:59:00,
2013-03-02 03:14:00,30.5,28.0,29.95,NE,43,2.0,-999.0,91,-99.99,,,0.00,weatherlink.com 1.10,2013-03-02 08:14:00,
2013-03-02 03:29:00,30.5,28.0,29.95,South,189,0.0,-999.0,91,-99.99,,,0.00,weatherlink.com 1.10,2013-03-02 08:29:00,
2013-03-02 03:44:00,30.2,28.0,29.95,SSW,204,0.0,-999.0,92,-99.99,,,0.00,weatherlink.com 1.10,2013-03-02 08:44:00,
2013-03-02 03:59:00,30.1,28.0,29.94,West,277,0.0,-999.0,92,-99.99,,,0.00,weatherlink.com 1.10,2013-03-02 08:59:00,
2013-03-02 04:14:00,30.0,28.0,29.94,SSW,204,0.0,-999.0,93,-99.99,,,0.00,weatherlink.com 1.10,2013-03-02 09:14:00,
2013-03-02 04:29:00,30.0,28.0,29.94,ENE,58,3.0,-999.0,92,-99.99,,,0.00,weatherlink.com 1.10,2013-03-02 09:29:00,
2013-03-02 04:44:00,30.1,28.0,29.94,SW,215,0.0,-999.0,92,-99.99,,,0.00,weatherlink.com 1.10,2013-03-02 09:44:00,
2013-03-02 04:59:00,30.0,28.0,29.95,SW,228,1.0,-999.0,91,-99.99,,,0.00,weatherlink.com 1.10,2013-03-02 09:59:00,
2013-03-02 05:14:00,30.0,28.0,29.95,NE,40,1.0,-999.0,90,-99.99,,,0.00,weatherlink.com 1.10,2013-03-02 10:14:00,
2013-03-02 05:29:00,29.8,27.0,29.95,ENE,77,0.0,-999.0,89,-99.99,,,0.00,weatherlink.com 1.10,2013-03-02 10:29:00,
2013-03-02 05:44:00,29.6,27.0,29.95,WSW,251,0.0,-999.0,88,-99.99,,,0.00,weatherlink.com 1.10,2013-03-02 10:44:00,
2013-03-02 05:59:00,29.8,26.0,29.95,SW,229,2.0,-999.0,85,-99.99,,,0.00,weatherlink.com 1.10,2013-03-02 10:59:00,
2013-03-02 06:14:00,29.7,26.0,29.95,NE,40,1.0,-999.0,86,-99.99,,,0.00,weatherlink.com 1.10,2013-03-02 11:14:00,
2013-03-02 06:29:00,29.7,26.0,29.96,WSW,258,1.0,-999.0,86,-99.99,,,0.00,weatherlink.com 1.10,2013-03-02 11:29:00,
2013-03-02 06:44:00,29.6,26.0,29.96,ENE,77,1.0,-999.0,86,-99.99,,,0.00,weatherlink.com 1.10,2013-03-02 11:44:00,
2013-03-02 06:59:00,29.7,26.0,29.96,NNW,342,0.0,-999.0,85,-99.99,,,0.00,weatherlink.com 1.10,2013-03-02 11:59:00,
2013-03-02 07:14:00,29.6,26.0,29.96,SSE,154,1.0,-999.0,85,-99.99,,,0.00,weatherlink.com 1.10,2013-03-02 12:14:00,
2013-03-02 07:29:00,29.6,25.0,29.97,NE,45,1.0,-999.0,84,-99.99,,,0.00,weatherlink.com 1.10,2013-03-02 12:29:00,
2013-03-02 07:44:00,29.6,25.0,29.97,ENE,58,0.0,-999.0,83,-99.99,,,0.00,weatherlink.com 1.10,2013-03-02 12:44:00,
2013-03-02 07:59:00,29.5,25.0,29.97,East,89,1.0,-999.0,84,-99.99,,,0.00,weatherlink.com 1.10,2013-03-02 12:59:00,
2013-03-02 08:14:00,29.7,25.0,29.98,ENE,77,4.0,-999.0,83,-99.99,,,0.00,weatherlink.com 1.10,2013-03-02 13:14:00,
2013-03-02 08:29:00,29.7,25.0,29.98,WSW,252,0.0,-999.0,83,-99.99,,,0.00,weatherlink.com 1.10,2013-03-02 13:29:00,
2013-03-02 08:44:00,29.9,25.0,29.98,WSW,254,2.0,-999.0,82,-99.99,,,0.00,weatherlink.com 1.10,2013-03-02 13:44:00,
2013-03-02 08:59:00,30.1,25.0,29.98,SSW,199,0.0,-999.0,82,-99.99,,,0.00,weatherlink.com 1.10,2013-03-02 13:59:00,
2013-03-02 09:14:00,29.9,25.0,29.99,SSE,154,2.0,-999.0,82,-99.99,,,0.00,weatherlink.com 1.10,2013-03-02 14:14:00,
2013-03-02 09:29:00,30.0,25.0,29.99,WSW,237,0.0,-999.0,81,-99.99,,,0.00,weatherlink.com 1.10,2013-03-02 14:29:00,
2013-03-02 09:44:00,30.5,24.0,29.99,NNE,21,3.0,-999.0,78,-99.99,,,0.00,weatherlink.com 1.10,2013-03-02 14:44:00,
2013-03-02 09:59:00,30.5,24.0,30.00,WSW,246,3.0,-999.0,77,-99.99,,,0.00,weatherlink.com 1.10,2013-03-02 14:59:00,
2013-03-02 10:14:00,30.6,24.0,30.00,WNW,287,0.0,-999.0,75,-99.99,,,0.00,weatherlink.com 1.10,2013-03-02 15:14:00,
2013-03-02 10:29:00,30.6,24.0,30.00,SSW,210,3.0,-999.0,76,-99.99,,,0.01,weatherlink.com 1.10,2013-03-02 15:29:00,
2013-03-02 10:44:00,30.3,24.0,30.00,ENE,63,0.0,-999.0,78,-99.99,,,0.01,weatherlink.com 1.10,2013-03-02 15:44:00,
2013-03-02 10:59:00,30.5,25.0,30.00,SW,218,3.0,-999.0,81,-99.99,,,0.01,weatherlink.com 1.10,2013-03-02 15:59:00,
2013-03-02 11:14:00,30.4,25.0,30.01,WSW,240,3.0,-999.0,79,-99.99,,,0.01,weatherlink.com 1.10,2013-03-02 16:14:00,
2013-03-02 11:29:00,30.3,25.0,30.01,ESE,102,1.0,-999.0,80,-99.99,,,0.01,weatherlink.com 1.10,2013-03-02 16:29:00,
2013-03-02 11:44:00,30.9,25.0,30.01,ENE,62,1.0,-999.0,79,-99.99,,,0.01,weatherlink.com 1.10,2013-03-02 16:44:00,
2013-03-02 11:59:00,31.1,25.0,30.01,East,83,0.0,-999.0,79,-99.99,,,0.01,weatherlink.com 1.10,2013-03-02 16:59:00,
2013-03-02 12:14:00,31.9,25.0,30.00,North,2,1.0,-999.0,77,-99.99,,,0.01,weatherlink.com 1.10,2013-03-02 17:14:00,
2013-03-02 12:29:00,31.0,25.0,30.00,NNE,26,0.0,-999.0,79,-99.99,,,0.01,weatherlink.com 1.10,2013-03-02 17:29:00,
2013-03-02 12:44:00,31.4,25.0,30.00,SSW,206,0.0,-999.0,78,-99.99,,,0.01,weatherlink.com 1.10,2013-03-02 17:44:00,
2013-03-02 12:59:00,31.7,26.0,30.00,SW,219,5.0,-999.0,78,-99.99,,,0.01,weatherlink.com 1.10,2013-03-02 17:59:00,
2013-03-02 13:14:00,31.8,25.0,30.00,NE,43,2.0,-999.0,77,-99.99,,,0.01,weatherlink.com 1.10,2013-03-02 18:14:00,
2013-03-02 13:29:00,31.0,25.0,30.00,NNE,33,2.0,-999.0,79,-99.99,,,0.01,weatherlink.com 1.10,2013-03-02 18:29:00,
2013-03-02 13:44:00,30.8,26.0,29.99,SW,218,1.0,-999.0,81,-99.99,,,0.01,weatherlink.com 1.10,2013-03-02 18:44:00,
2013-03-02 13:59:00,30.6,26.0,29.99,ESE,103,3.0,-999.0,82,-99.99,,,0.01,weatherlink.com 1.10,2013-03-02 18:59:00,
2013-03-02 14:14:00,30.6,26.0,29.99,WSW,244,0.0,-999.0,82,-99.99,,,0.01,weatherlink.com 1.10,2013-03-02 19:14:00,
2013-03-02 14:29:00,31.1,27.0,29.98,SSE,162,5.0,-999.0,83,-99.99,,,0.01,weatherlink.com 1.10,2013-03-02 19:29:00,
2013-03-02 14:44:00,30.9,26.0,29.98,SW,235,6.0,-999.0,83,-99.99,,,0.01,weatherlink.com 1.10,2013-03-02 19:44:00,
2013-03-02 14:59:00,31.1,27.0,29.98,NNE,26,1.0,-999.0,83,-99.99,,,0.01,weatherlink.com 1.10,2013-03-02 19:59:00,
2013-03-02 15:14:00,31.5,27.0,29.99,NE,42,8.0,-999.0,83,-99.99,,,0.01,weatherlink.com 1.10,2013-03-02 20:14:00,
2013-03-02 15:29:00,31.5,26.0,29.99,West,268,0.0,-999.0,81,-99.99,,,0.01,weatherlink.com 1.10,2013-03-02 20:29:00,
2013-03-02 15:44:00,31.7,27.0,29.99,NNE,30,3.0,-999.0,83,-99.99,,,0.01,weatherlink.com 1.10,2013-03-02 20:44:00,
2013-03-02 15:59:00,31.4,27.0,29.99,SSE,160,1.0,-999.0,83,-99.99,,,0.01,weatherlink.com 1.10,2013-03-02 20:59:00,
2013-03-02 16:14:00,31.1,26.0,29.99,NE,42,0.0,-999.0,82,-99.99,,,0.01,weatherlink.com 1.10,2013-03-02 21:14:00,
2013-03-02 16:29:00,31.3,26.0,30.00,NE,47,4.0,-999.0,81,-99.99,,,0.01,weatherlink.com 1.10,2013-03-02 21:29:00,
2013-03-02 16:44:00,31.0,26.0,30.00,North,352,0.0,-999.0,81,-99.99,,,0.01,weatherlink.com 1.10,2013-03-02 21:44:00,
2013-03-02 16:59:00,30.7,25.0,30.00,ENE,62,3.0,-999.0,80,-99.99,,,0.01,weatherlink.com 1.10,2013-03-02 21:59:00,
2013-03-02 17:14:00,30.9,26.0,30.01,ENE,60,1.0,-999.0,81,-99.99,,,0.01,weatherlink.com 1.10,2013-03-02 22:14:00,
2013-03-02 17:29:00,30.6,25.0,30.01,ENE,67,1.0,-999.0,81,-99.99,,,0.01,weatherlink.com 1.10,2013-03-02 22:29:00,
2013-03-02 17:44:00,30.3,25.0,30.01,SE,141,0.0,-999.0,82,-99.99,,,0.01,weatherlink.com 1.10,2013-03-02 22:44:00,
2013-03-02 17:59:00,30.3,25.0,30.02,NW,326,0.0,-999.0,82,-99.99,,,0.01,weatherlink.com 1.10,2013-03-02 22:59:00,
2013-03-02 18:14:00,30.3,25.0,30.02,ENE,72,1.0,-999.0,82,-99.99,,,0.01,weatherlink.com 1.10,2013-03-02 23:14:00,
2013-03-02 18:29:00,30.2,26.0,30.03,NE,50,1.0,-999.0,83,-99.99,,,0.01,weatherlink.com 1.10,2013-03-02 23:29:00,
2013-03-02 18:44:00,30.1,25.0,30.03,SSE,154,0.0,-999.0,82,-99.99,,,0.01,weatherlink.com 1.10,2013-03-02 23:44:00,
2013-03-02 18:59:00,30.0,25.0,30.04,WSW,258,0.0,-999.0,82,-99.99,,,0.01,weatherlink.com 1.10,2013-03-02 23:59:00,
2013-03-02 19:14:00,29.9,25.0,30.04,ENE,67,1.0,-999.0,81,-99.99,,,0.01,weatherlink.com 1.10,2013-03-03 00:14:00,
2013-03-02 19:29:00,29.7,24.0,30.04,WSW,239,2.0,-999.0,80,-99.99,,,0.01,weatherlink.com 1.10,2013-03-03 00:29:00,
2013-03-02 19:44:00,29.6,24.0,30.04,NE,50,2.0,-999.0,80,-99.99,,,0.01,weatherlink.com 1.10,2013-03-03 00:44:00,
2013-03-02 19:59:00,29.4,24.0,30.04,NE,48,2.0,-999.0,80,-99.99,,,0.01,weatherlink.com 1.10,2013-03-03 00:59:00,
2013-03-02 20:14:00,29.2,24.0,30.04,NE,42,1.0,-999.0,80,-99.99,,,0.01,weatherlink.com 1.10,2013-03-03 01:14:00,
2013-03-02 20:29:00,29.3,24.0,30.04,ENE,59,1.0,-999.0,80,-99.99,,,0.01,weatherlink.com 1.10,2013-03-03 01:29:00,
2013-03-02 20:44:00,29.2,24.0,30.04,North,4,2.0,-999.0,81,-99.99,,,0.01,weatherlink.com 1.10,2013-03-03 01:44:00,
2013-03-02 20:59:00,29.1,24.0,30.05,SSE,167,0.0,-999.0,82,-99.99,,,0.01,weatherlink.com 1.10,2013-03-03 01:59:00,
2013-03-02 21:14:00,29.0,24.0,30.05,NE,43,0.0,-999.0,82,-99.99,,,0.01,weatherlink.com 1.10,2013-03-03 02:14:00,
2013-03-02 21:29:00,29.2,25.0,30.05,NE,55,4.0,-999.0,84,-99.99,,,0.01,weatherlink.com 1.10,2013-03-03 02:29:00,
2013-03-02 21:44:00,28.8,24.0,30.06,North,6,3.0,-999.0,82,-99.99,,,0.01,weatherlink.com 1.10,2013-03-03 02:44:00,
2013-03-02 21:59:00,28.6,24.0,30.06,NNE,31,0.0,-999.0,82,-99.99,,,0.01,weatherlink.com 1.10,2013-03-03 02:59:00,
2013-03-02 22:14:00,28.6,24.0,30.06,NNE,12,0.0,-999.0,82,-99.99,,,0.01,weatherlink.com 1.10,2013-03-03 03:14:00,
2013-03-02 22:29:00,28.3,24.0,30.06,North,357,0.0,-999.0,83,-99.99,,,0.01,weatherlink.com 1.10,2013-03-03 03:29:00,
2013-03-02 22:44:00,28.1,23.0,30.06,NE,37,0.0,-999.0,82,-99.99,,,0.01,weatherlink.com 1.10,2013-03-03 03:44:00,
2013-03-02 22:59:00,27.8,22.0,30.07,ENE,72,4.0,-999.0,80,-99.99,,,0.01,weatherlink.com 1.10,2013-03-03 03:59:00,
2013-03-02 23:14:00,27.4,21.0,30.06,NE,48,2.0,-999.0,78,-99.99,,,0.01,weatherlink.com 1.10,2013-03-03 04:14:00,
2013-03-02 23:29:00,27.3,21.0,30.06,NNE,22,0.0,-999.0,78,-99.99,,,0.01,weatherlink.com 1.10,2013-03-03 04:29:00,
2013-03-02 23:44:00,27.1,21.0,30.06,WSW,253,4.0,-999.0,78,-99.99,,,0.01,weatherlink.com 1.10,2013-03-03 04:44:00,
2013-03-02 23:59:00,26.9,21.0,30.06,NE,48,2.0,-999.0,79,-99.99,,,0.00,weatherlink.com 1.10,2013-03-03 04:59:00,